owner,sensor,date,latitude,longitude,vertical_datum,sea_water_practical_salinity,qcFlag 
SCCF RECON,ioos:station:SCCF:51:1,2009-01-01T00:00:00Z,26.5545,-82.1715,1.66,34.33,1111122 
SCCF RECON,ioos:station:SCCF:51:1,2009-01-01T01:00:00Z,26.5545,-82.1715,1.63,34.22,1111122 
SCCF RECON,ioos:station:SCCF:51:1,2009-01-01T02:00:00Z,26.5545,-82.1715,1.632,34.31,1111122 
SCCF RECON,ioos:station:SCCF:51:1,2009-01-01T03:00:00Z,26.5545,-82.1715,1.66,34.36,1111122 
SCCF RECON,ioos:station:SCCF:51:1,2009-01-01T04:00:00Z,26.5545,-82.1715,1.715,34.5,1111122 
SCCF RECON,ioos:station:SCCF:51:1,2009-01-01T05:00:00Z,26.5545,-82.1715,1.77,35.08,1111122 
SCCF RECON,ioos:station:SCCF:51:1,2009-01-01T06:00:00Z,26.5545,-82.1715,1.833,35.18,1111122 
SCCF RECON,ioos:station:SCCF:51:1,2009-01-01T07:00:00Z,26.5545,-82.1715,1.879,35.2,1111122 
SCCF RECON,ioos:station:SCCF:51:1,2009-01-01T08:00:00Z,26.5545,-82.1715,1.853,35.21,1111122 
SCCF RECON,ioos:station:SCCF:51:1,2009-01-01T09:00:00Z,26.5545,-82.1715,1.8,35.2,1111122 
SCCF RECON,ioos:station:SCCF:51:1,2009-01-01T10:00:00Z,26.5545,-82.1715,1.729,35.06,1111122 
SCCF RECON,ioos:station:SCCF:51:1,2009-01-01T11:00:00Z,26.5545,-82.1715,1.639,34.71,1111122 
SCCF RECON,ioos:station:SCCF:51:1,2009-01-01T12:00:00Z,26.5545,-82.1715,1.546,34.49,1111122 
SCCF RECON,ioos:station:SCCF:51:1,2009-01-01T13:00:00Z,26.5545,-82.1715,1.453,34.34,1111122 
SCCF RECON,ioos:station:SCCF:51:1,2009-01-01T14:00:00Z,26.5545,-82.1715,1.382,34.28,1111122 
SCCF RECON,ioos:station:SCCF:51:1,2009-01-01T15:00:00Z,26.5545,-82.1715,1.339,34.27,1111122 
SCCF RECON,ioos:station:SCCF:51:1,2009-01-01T16:00:00Z,26.5545,-82.1715,1.361,34.32,1111122 
SCCF RECON,ioos:station:SCCF:51:1,2009-01-01T17:00:00Z,26.5545,-82.1715,1.429,34.46,1111122 
SCCF RECON,ioos:station:SCCF:51:1,2009-01-01T18:00:00Z,26.5545,-82.1715,1.537,34.57,1111122 
SCCF RECON,ioos:station:SCCF:51:1,2009-01-01T19:00:00Z,26.5545,-82.1715,1.645,35.05,1111122 
SCCF RECON,ioos:station:SCCF:51:1,2009-01-01T20:00:00Z,26.5545,-82.1715,1.734,34.86,1111122 
SCCF RECON,ioos:station:SCCF:51:1,2009-01-01T21:00:00Z,26.5545,-82.1715,1.81,34.97,1111122 
SCCF RECON,ioos:station:SCCF:51:1,2009-01-01T22:00:00Z,26.5545,-82.1715,1.86,35.01,1111122 
SCCF RECON,ioos:station:SCCF:51:1,2009-01-01T23:00:00Z,26.5545,-82.1715,1.842,34.98,1111122 
SCCF RECON,ioos:station:SCCF:51:1,2009-01-02T00:00:00Z,26.5545,-82.1715,1.803,34.58,1111122 
SCCF RECON,ioos:station:SCCF:51:1,2009-01-02T01:00:00Z,26.5545,-82.1715,1.739,34.19,1111122 
SCCF RECON,ioos:station:SCCF:51:1,2009-01-02T02:00:00Z,26.5545,-82.1715,1.681,34.15,1111122 
SCCF RECON,ioos:station:SCCF:51:1,2009-01-02T03:00:00Z,26.5545,-82.1715,1.635,34.07,1111122 
SCCF RECON,ioos:station:SCCF:51:1,2009-01-02T04:00:00Z,26.5545,-82.1715,1.622,34.04,1111122 
SCCF RECON,ioos:station:SCCF:51:1,2009-01-02T05:00:00Z,26.5545,-82.1715,1.673,33.43,1111122 
SCCF RECON,ioos:station:SCCF:51:1,2009-01-02T06:00:00Z,26.5545,-82.1715,1.732,33.93,1111122 
SCCF RECON,ioos:station:SCCF:51:1,2009-01-02T07:00:00Z,26.5545,-82.1715,1.821,34.15,1111122 
SCCF RECON,ioos:station:SCCF:51:1,2009-01-02T08:00:00Z,26.5545,-82.1715,1.882,34.75,1111122 
SCCF RECON,ioos:station:SCCF:51:1,2009-01-02T09:00:00Z,26.5545,-82.1715,1.897,34.57,1111122 
SCCF RECON,ioos:station:SCCF:51:1,2009-01-02T10:00:00Z,26.5545,-82.1715,1.874,33.95,1111122 
SCCF RECON,ioos:station:SCCF:51:1,2009-01-02T11:00:00Z,26.5545,-82.1715,1.826,33.51,1111122 
SCCF RECON,ioos:station:SCCF:51:1,2009-01-02T12:00:00Z,26.5545,-82.1715,1.757,33.31,1111122 
SCCF RECON,ioos:station:SCCF:51:1,2009-01-02T13:00:00Z,26.5545,-82.1715,1.681,33.32,1111122 
SCCF RECON,ioos:station:SCCF:51:1,2009-01-02T14:00:00Z,26.5545,-82.1715,1.608,33.45,1111122 
SCCF RECON,ioos:station:SCCF:51:1,2009-01-02T15:00:00Z,26.5545,-82.1715,1.554,33.36,1111122 
SCCF RECON,ioos:station:SCCF:51:1,2009-01-02T16:00:00Z,26.5545,-82.1715,1.521,33.07,1111122 
SCCF RECON,ioos:station:SCCF:51:1,2009-01-02T17:00:00Z,26.5545,-82.1715,1.544,33.24,1111122 
SCCF RECON,ioos:station:SCCF:51:1,2009-01-02T18:00:00Z,26.5545,-82.1715,1.619,33.16,1111122 
SCCF RECON,ioos:station:SCCF:51:1,2009-01-02T19:00:00Z,26.5545,-82.1715,1.718,33.81,1111122 
SCCF RECON,ioos:station:SCCF:51:1,2009-01-02T20:00:00Z,26.5545,-82.1715,1.81,33.65,1111122 
SCCF RECON,ioos:station:SCCF:51:1,2009-01-02T21:00:00Z,26.5545,-82.1715,1.865,34.52,1111122 
SCCF RECON,ioos:station:SCCF:51:1,2009-01-02T22:00:00Z,26.5545,-82.1715,1.887,34.97,1111122 
SCCF RECON,ioos:station:SCCF:51:1,2009-01-02T23:00:00Z,26.5545,-82.1715,1.867,34.32,1111122 
SCCF RECON,ioos:station:SCCF:51:1,2009-01-03T00:00:00Z,26.5545,-82.1715,1.82,34.05,1111122 
SCCF RECON,ioos:station:SCCF:51:1,2009-01-03T01:00:00Z,26.5545,-82.1715,1.768,33.31,1111122 
SCCF RECON,ioos:station:SCCF:51:1,2009-01-03T02:00:00Z,26.5545,-82.1715,1.71,33.49,1111122 
SCCF RECON,ioos:station:SCCF:51:1,2009-01-03T03:00:00Z,26.5545,-82.1715,1.65,34.07,1111122 
SCCF RECON,ioos:station:SCCF:51:1,2009-01-03T04:00:00Z,26.5545,-82.1715,1.603,34.01,1111122 
SCCF RECON,ioos:station:SCCF:51:1,2009-01-03T05:00:00Z,26.5545,-82.1715,1.6,34.4,1111122 
SCCF RECON,ioos:station:SCCF:51:1,2009-01-03T06:00:00Z,26.5545,-82.1715,1.639,33.31,1111122 
SCCF RECON,ioos:station:SCCF:51:1,2009-01-03T07:00:00Z,26.5545,-82.1715,1.71,33.43,1111122 
SCCF RECON,ioos:station:SCCF:51:1,2009-01-03T08:00:00Z,26.5545,-82.1715,1.783,33.93,1111122 
SCCF RECON,ioos:station:SCCF:51:1,2009-01-03T09:00:00Z,26.5545,-82.1715,1.833,34.18,1111122 
SCCF RECON,ioos:station:SCCF:51:1,2009-01-03T10:00:00Z,26.5545,-82.1715,1.849,34.34,1111122 
SCCF RECON,ioos:station:SCCF:51:1,2009-01-03T11:00:00Z,26.5545,-82.1715,1.815,34.11,1111122 
SCCF RECON,ioos:station:SCCF:51:1,2009-01-03T12:00:00Z,26.5545,-82.1715,1.77,34.23,1111122 
SCCF RECON,ioos:station:SCCF:51:1,2009-01-03T13:00:00Z,26.5545,-82.1715,1.72,34.41,1111122 
SCCF RECON,ioos:station:SCCF:51:1,2009-01-03T14:00:00Z,26.5545,-82.1715,1.669,34.1,1111122 
SCCF RECON,ioos:station:SCCF:51:1,2009-01-03T15:00:00Z,26.5545,-82.1715,1.618,34.25,1111122 
SCCF RECON,ioos:station:SCCF:51:1,2009-01-03T16:00:00Z,26.5545,-82.1715,1.575,33.41,1111122 
SCCF RECON,ioos:station:SCCF:51:1,2009-01-03T17:00:00Z,26.5545,-82.1715,1.59,33.44,1111122 
SCCF RECON,ioos:station:SCCF:51:1,2009-01-03T18:00:00Z,26.5545,-82.1715,1.631,33.37,1111122 
SCCF RECON,ioos:station:SCCF:51:1,2009-01-03T19:00:00Z,26.5545,-82.1715,1.709,33.1,1111122 
SCCF RECON,ioos:station:SCCF:51:1,2009-01-03T20:00:00Z,26.5545,-82.1715,1.808,34.59,1111122 
SCCF RECON,ioos:station:SCCF:51:1,2009-01-03T21:00:00Z,26.5545,-82.1715,1.893,34.96,1111122 
SCCF RECON,ioos:station:SCCF:51:1,2009-01-03T22:00:00Z,26.5545,-82.1715,1.943,34.73,1111122 
SCCF RECON,ioos:station:SCCF:51:1,2009-01-03T23:00:00Z,26.5545,-82.1715,1.954,34.92,1111122 
SCCF RECON,ioos:station:SCCF:51:1,2009-01-04T00:00:00Z,26.5545,-82.1715,1.92,34.72,1111122 
SCCF RECON,ioos:station:SCCF:51:1,2009-01-04T01:00:00Z,26.5545,-82.1715,1.86,34.05,1111122 
SCCF RECON,ioos:station:SCCF:51:1,2009-01-04T02:00:00Z,26.5545,-82.1715,1.78,33.91,1111122 
SCCF RECON,ioos:station:SCCF:51:1,2009-01-04T03:00:00Z,26.5545,-82.1715,1.705,33.38,1111122 
SCCF RECON,ioos:station:SCCF:51:1,2009-01-04T04:00:00Z,26.5545,-82.1715,1.635,33.02,1111122 
SCCF RECON,ioos:station:SCCF:51:1,2009-01-04T05:00:00Z,26.5545,-82.1715,1.572,32.68,1111122 
SCCF RECON,ioos:station:SCCF:51:1,2009-01-04T06:00:00Z,26.5545,-82.1715,1.534,32.89,1111122 
SCCF RECON,ioos:station:SCCF:51:1,2009-01-04T07:00:00Z,26.5545,-82.1715,1.54,32.8,1111122 
SCCF RECON,ioos:station:SCCF:51:1,2009-01-04T08:00:00Z,26.5545,-82.1715,1.599,32.67,1111122 
SCCF RECON,ioos:station:SCCF:51:1,2009-01-04T09:00:00Z,26.5545,-82.1715,1.66,32.72,1111122 
SCCF RECON,ioos:station:SCCF:51:1,2009-01-04T10:00:00Z,26.5545,-82.1715,1.732,33.94,1111122 
SCCF RECON,ioos:station:SCCF:51:1,2009-01-04T11:00:00Z,26.5545,-82.1715,1.77,33.04,1111122 
SCCF RECON,ioos:station:SCCF:51:1,2009-01-04T12:00:00Z,26.5545,-82.1715,1.759,33.94,1111122 
SCCF RECON,ioos:station:SCCF:51:1,2009-01-04T13:00:00Z,26.5545,-82.1715,1.739,34.24,1111122 
SCCF RECON,ioos:station:SCCF:51:1,2009-01-04T14:00:00Z,26.5545,-82.1715,1.7,33.48,1111122 
SCCF RECON,ioos:station:SCCF:51:1,2009-01-04T15:00:00Z,26.5545,-82.1715,1.66,33.55,1111122 
SCCF RECON,ioos:station:SCCF:51:1,2009-01-04T16:00:00Z,26.5545,-82.1715,1.628,33.23,1111122 
SCCF RECON,ioos:station:SCCF:51:1,2009-01-04T17:00:00Z,26.5545,-82.1715,1.623,33.78,1111122 
SCCF RECON,ioos:station:SCCF:51:1,2009-01-04T18:00:00Z,26.5545,-82.1715,1.644,33.47,1111122 
SCCF RECON,ioos:station:SCCF:51:1,2009-01-04T19:00:00Z,26.5545,-82.1715,1.685,33.15,1111122 
SCCF RECON,ioos:station:SCCF:51:1,2009-01-04T20:00:00Z,26.5545,-82.1715,1.75,33.67,1111122 
SCCF RECON,ioos:station:SCCF:51:1,2009-01-04T21:00:00Z,26.5545,-82.1715,1.839,34.77,1111122 
SCCF RECON,ioos:station:SCCF:51:1,2009-01-04T22:00:00Z,26.5545,-82.1715,1.922,35.18,1111122 
SCCF RECON,ioos:station:SCCF:51:1,2009-01-04T23:00:00Z,26.5545,-82.1715,1.959,34.91,1111122 
SCCF RECON,ioos:station:SCCF:51:1,2009-01-05T00:00:00Z,26.5545,-82.1715,1.94,34.41,1111122 
SCCF RECON,ioos:station:SCCF:51:1,2009-01-05T01:00:00Z,26.5545,-82.1715,1.875,33.85,1111122 
SCCF RECON,ioos:station:SCCF:51:1,2009-01-05T02:00:00Z,26.5545,-82.1715,1.802,33.58,1111122 
SCCF RECON,ioos:station:SCCF:51:1,2009-01-05T03:00:00Z,26.5545,-82.1715,1.701,33.27,1111122 
SCCF RECON,ioos:station:SCCF:51:1,2009-01-05T04:00:00Z,26.5545,-82.1715,1.604,33.14,1111122 
SCCF RECON,ioos:station:SCCF:51:1,2009-01-05T05:00:00Z,26.5545,-82.1715,1.52,33.13,1111122 
SCCF RECON,ioos:station:SCCF:51:1,2009-01-05T06:00:00Z,26.5545,-82.1715,1.443,33.18,1111122 
SCCF RECON,ioos:station:SCCF:51:1,2009-01-05T07:00:00Z,26.5545,-82.1715,1.386,33.14,1111122 
SCCF RECON,ioos:station:SCCF:51:1,2009-01-05T08:00:00Z,26.5545,-82.1715,1.383,33.2,1111122 
SCCF RECON,ioos:station:SCCF:51:1,2009-01-05T09:00:00Z,26.5545,-82.1715,1.445,33.25,1111122 
SCCF RECON,ioos:station:SCCF:51:1,2009-01-05T10:00:00Z,26.5545,-82.1715,1.52,33.3,1111122 
SCCF RECON,ioos:station:SCCF:51:1,2009-01-05T11:00:00Z,26.5545,-82.1715,1.608,34.18,1111122 
SCCF RECON,ioos:station:SCCF:51:1,2009-01-05T12:00:00Z,26.5545,-82.1715,1.67,33.82,1111122 
SCCF RECON,ioos:station:SCCF:51:1,2009-01-05T13:00:00Z,26.5545,-82.1715,1.7,34.15,1111122 
SCCF RECON,ioos:station:SCCF:51:1,2009-01-05T14:00:00Z,26.5545,-82.1715,1.701,34.24,1111122 
SCCF RECON,ioos:station:SCCF:51:1,2009-01-05T15:00:00Z,26.5545,-82.1715,1.693,34.24,1111122 
SCCF RECON,ioos:station:SCCF:51:1,2009-01-05T16:00:00Z,26.5545,-82.1715,1.683,34.15,1111122 
SCCF RECON,ioos:station:SCCF:51:1,2009-01-05T17:00:00Z,26.5545,-82.1715,1.679,33.93,1111122 
SCCF RECON,ioos:station:SCCF:51:1,2009-01-05T18:00:00Z,26.5545,-82.1715,1.681,33.79,1111122 
SCCF RECON,ioos:station:SCCF:51:1,2009-01-05T19:00:00Z,26.5545,-82.1715,1.709,33.88,1111122 
SCCF RECON,ioos:station:SCCF:51:1,2009-01-05T20:00:00Z,26.5545,-82.1715,1.767,33.77,1111122 
SCCF RECON,ioos:station:SCCF:51:1,2009-01-05T21:00:00Z,26.5545,-82.1715,1.838,34.58,1111122 
SCCF RECON,ioos:station:SCCF:51:1,2009-01-05T22:00:00Z,26.5545,-82.1715,1.909,35.32,1111122 
SCCF RECON,ioos:station:SCCF:51:1,2009-01-05T23:00:00Z,26.5545,-82.1715,1.97,35.44,1111122 
SCCF RECON,ioos:station:SCCF:51:1,2009-01-06T00:00:00Z,26.5545,-82.1715,1.99,35.15,1111122 
SCCF RECON,ioos:station:SCCF:51:1,2009-01-06T01:00:00Z,26.5545,-82.1715,1.96,35.25,1111122 
SCCF RECON,ioos:station:SCCF:51:1,2009-01-06T02:00:00Z,26.5545,-82.1715,1.9,34.46,1111122 
SCCF RECON,ioos:station:SCCF:51:1,2009-01-06T03:00:00Z,26.5545,-82.1715,1.82,33.72,1111122 
SCCF RECON,ioos:station:SCCF:51:1,2009-01-06T04:00:00Z,26.5545,-82.1715,1.71,33.35,1111122 
SCCF RECON,ioos:station:SCCF:51:1,2009-01-06T05:00:00Z,26.5545,-82.1715,1.61,33.15,1111122 
SCCF RECON,ioos:station:SCCF:51:1,2009-01-06T06:00:00Z,26.5545,-82.1715,1.498,33.01,1111122 
SCCF RECON,ioos:station:SCCF:51:1,2009-01-06T07:00:00Z,26.5545,-82.1715,1.4,33.01,1111122 
SCCF RECON,ioos:station:SCCF:51:1,2009-01-06T08:00:00Z,26.5545,-82.1715,1.32,33.25,1111122 
SCCF RECON,ioos:station:SCCF:51:1,2009-01-06T09:00:00Z,26.5545,-82.1715,1.32,33.55,1111122 
SCCF RECON,ioos:station:SCCF:51:1,2009-01-06T10:00:00Z,26.5545,-82.1715,1.38,33.01,1111122 
SCCF RECON,ioos:station:SCCF:51:1,2009-01-06T11:00:00Z,26.5545,-82.1715,1.479,32.87,1111122 
SCCF RECON,ioos:station:SCCF:51:1,2009-01-06T12:00:00Z,26.5545,-82.1715,1.578,34.37,1111122 
SCCF RECON,ioos:station:SCCF:51:1,2009-01-06T13:00:00Z,26.5545,-82.1715,1.652,34.08,1111122 
SCCF RECON,ioos:station:SCCF:51:1,2009-01-06T14:00:00Z,26.5545,-82.1715,1.703,34.45,1111122 
SCCF RECON,ioos:station:SCCF:51:1,2009-01-06T15:00:00Z,26.5545,-82.1715,1.732,33.98,1111122 
SCCF RECON,ioos:station:SCCF:51:1,2009-01-06T16:00:00Z,26.5545,-82.1715,1.748,33.77,1111122 
SCCF RECON,ioos:station:SCCF:51:1,2009-01-06T17:00:00Z,26.5545,-82.1715,1.739,33.96,1111122 
SCCF RECON,ioos:station:SCCF:51:1,2009-01-06T18:00:00Z,26.5545,-82.1715,1.721,33.63,1111122 
SCCF RECON,ioos:station:SCCF:51:1,2009-01-06T19:00:00Z,26.5545,-82.1715,1.724,33.58,1111122 
SCCF RECON,ioos:station:SCCF:51:1,2009-01-06T20:00:00Z,26.5545,-82.1715,1.752,33.51,1111122 
SCCF RECON,ioos:station:SCCF:51:1,2009-01-06T21:00:00Z,26.5545,-82.1715,1.81,33.74,1111122 
SCCF RECON,ioos:station:SCCF:51:1,2009-01-06T22:00:00Z,26.5545,-82.1715,1.889,33.7,1111122 
SCCF RECON,ioos:station:SCCF:51:1,2009-01-06T23:00:00Z,26.5545,-82.1715,1.964,34.89,1111122 
SCCF RECON,ioos:station:SCCF:51:1,2009-01-07T00:00:00Z,26.5545,-82.1715,1.999,34.8,1111122 
SCCF RECON,ioos:station:SCCF:51:1,2009-01-07T01:00:00Z,26.5545,-82.1715,2.017,35.38,1111122 
SCCF RECON,ioos:station:SCCF:51:1,2009-01-07T02:00:00Z,26.5545,-82.1715,1.991,35.36,1111122 
SCCF RECON,ioos:station:SCCF:51:1,2009-01-07T03:00:00Z,26.5545,-82.1715,1.93,33.87,1111122 
SCCF RECON,ioos:station:SCCF:51:1,2009-01-07T04:00:00Z,26.5545,-82.1715,1.847,33.52,1111122 
SCCF RECON,ioos:station:SCCF:51:1,2009-01-07T05:00:00Z,26.5545,-82.1715,1.742,33.2,1111122 
SCCF RECON,ioos:station:SCCF:51:1,2009-01-07T06:00:00Z,26.5545,-82.1715,1.617,33.05,1111122 
SCCF RECON,ioos:station:SCCF:51:1,2009-01-07T07:00:00Z,26.5545,-82.1715,1.496,33.03,1111122 
SCCF RECON,ioos:station:SCCF:51:1,2009-01-07T08:00:00Z,26.5545,-82.1715,1.379,32.7,1111122 
SCCF RECON,ioos:station:SCCF:51:1,2009-01-07T09:00:00Z,26.5545,-82.1715,1.286,32.47,1111122 
SCCF RECON,ioos:station:SCCF:51:1,2009-01-07T10:00:00Z,26.5545,-82.1715,1.281,32.36,1111122 
SCCF RECON,ioos:station:SCCF:51:1,2009-01-07T11:00:00Z,26.5545,-82.1715,1.349,32.49,1111122 
SCCF RECON,ioos:station:SCCF:51:1,2009-01-07T12:00:00Z,26.5545,-82.1715,1.448,32.82,1111122 
SCCF RECON,ioos:station:SCCF:51:1,2009-01-07T13:00:00Z,26.5545,-82.1715,1.568,33.77,1111122 
SCCF RECON,ioos:station:SCCF:51:1,2009-01-07T14:00:00Z,26.5545,-82.1715,1.661,34.01,1111122 
SCCF RECON,ioos:station:SCCF:51:1,2009-01-07T15:00:00Z,26.5545,-82.1715,1.746,34.6,1111122 
SCCF RECON,ioos:station:SCCF:51:1,2009-01-07T16:00:00Z,26.5545,-82.1715,1.793,35.12,1111122 
SCCF RECON,ioos:station:SCCF:51:1,2009-01-07T17:00:00Z,26.5545,-82.1715,1.805,34.9,1111122 
SCCF RECON,ioos:station:SCCF:51:1,2009-01-07T18:00:00Z,26.5545,-82.1715,1.777,34.25,1111122 
SCCF RECON,ioos:station:SCCF:51:1,2009-01-07T19:00:00Z,26.5545,-82.1715,1.809,34.33,1111122 
SCCF RECON,ioos:station:SCCF:51:1,2009-01-07T20:00:00Z,26.5545,-82.1715,1.756,33.77,1111122 
SCCF RECON,ioos:station:SCCF:51:1,2009-01-07T21:00:00Z,26.5545,-82.1715,1.777,33.66,1111122 
SCCF RECON,ioos:station:SCCF:51:1,2009-01-07T22:00:00Z,26.5545,-82.1715,1.785,33.97,1111122 
SCCF RECON,ioos:station:SCCF:51:1,2009-01-07T23:00:00Z,26.5545,-82.1715,1.808,34.86,1111122 
SCCF RECON,ioos:station:SCCF:51:1,2009-01-08T00:00:00Z,26.5545,-82.1715,1.854,35.07,1111122 
SCCF RECON,ioos:station:SCCF:51:1,2009-01-08T01:00:00Z,26.5545,-82.1715,1.861,34.92,1111122 
SCCF RECON,ioos:station:SCCF:51:1,2009-01-08T02:00:00Z,26.5545,-82.1715,1.886,35.08,1111122 
SCCF RECON,ioos:station:SCCF:51:1,2009-01-08T03:00:00Z,26.5545,-82.1715,1.873,35.07,1111122 
SCCF RECON,ioos:station:SCCF:51:1,2009-01-08T04:00:00Z,26.5545,-82.1715,1.825,35.01,1111122 
SCCF RECON,ioos:station:SCCF:51:1,2009-01-08T05:00:00Z,26.5545,-82.1715,1.731,34.6,1111122 
SCCF RECON,ioos:station:SCCF:51:1,2009-01-08T06:00:00Z,26.5545,-82.1715,1.61,33.82,1111122 
SCCF RECON,ioos:station:SCCF:51:1,2009-01-08T07:00:00Z,26.5545,-82.1715,1.478,33.29,1111122 
SCCF RECON,ioos:station:SCCF:51:1,2009-01-08T08:00:00Z,26.5545,-82.1715,1.349,33.38,1111122 
SCCF RECON,ioos:station:SCCF:51:1,2009-01-08T09:00:00Z,26.5545,-82.1715,1.24,32.61,1111122 
SCCF RECON,ioos:station:SCCF:51:1,2009-01-08T10:00:00Z,26.5545,-82.1715,1.151,32.48,1111122 
SCCF RECON,ioos:station:SCCF:51:1,2009-01-08T11:00:00Z,26.5545,-82.1715,1.148,32.94,1111122 
SCCF RECON,ioos:station:SCCF:51:1,2009-01-08T12:00:00Z,26.5545,-82.1715,1.225,33.05,1111122 
SCCF RECON,ioos:station:SCCF:51:1,2009-01-08T13:00:00Z,26.5545,-82.1715,1.321,33.27,1111122 
SCCF RECON,ioos:station:SCCF:51:1,2009-01-08T14:00:00Z,26.5545,-82.1715,1.471,34.56,1111122 
SCCF RECON,ioos:station:SCCF:51:1,2009-01-08T15:00:00Z,26.5545,-82.1715,1.609,34.91,1111122 
SCCF RECON,ioos:station:SCCF:51:1,2009-01-08T16:00:00Z,26.5545,-82.1715,1.709,34.92,1111122 
SCCF RECON,ioos:station:SCCF:51:1,2009-01-08T17:00:00Z,26.5545,-82.1715,1.768,34.81,1111122 
SCCF RECON,ioos:station:SCCF:51:1,2009-01-08T18:00:00Z,26.5545,-82.1715,1.776,34.92,1111122 
SCCF RECON,ioos:station:SCCF:51:1,2009-01-08T19:00:00Z,26.5545,-82.1715,1.729,34.52,1111122 
SCCF RECON,ioos:station:SCCF:51:1,2009-01-08T20:00:00Z,26.5545,-82.1715,1.692,34.87,1111122 
SCCF RECON,ioos:station:SCCF:51:1,2009-01-08T21:00:00Z,26.5545,-82.1715,1.71,34.68,1111122 
SCCF RECON,ioos:station:SCCF:51:1,2009-01-08T22:00:00Z,26.5545,-82.1715,1.772,34.26,1111122 
SCCF RECON,ioos:station:SCCF:51:1,2009-01-08T23:00:00Z,26.5545,-82.1715,1.832,34.85,1111122 
SCCF RECON,ioos:station:SCCF:51:1,2009-01-09T00:00:00Z,26.5545,-82.1715,1.91,35.06,1111122 
SCCF RECON,ioos:station:SCCF:51:1,2009-01-09T01:00:00Z,26.5545,-82.1715,1.961,35.14,1111122 
SCCF RECON,ioos:station:SCCF:51:1,2009-01-09T02:00:00Z,26.5545,-82.1715,1.993,35.28,1111122 
SCCF RECON,ioos:station:SCCF:51:1,2009-01-09T03:00:00Z,26.5545,-82.1715,2.002,35.27,1111122 
SCCF RECON,ioos:station:SCCF:51:1,2009-01-09T04:00:00Z,26.5545,-82.1715,1.99,35.27,1111122 
SCCF RECON,ioos:station:SCCF:51:1,2009-01-09T05:00:00Z,26.5545,-82.1715,1.92,35.21,1111122 
SCCF RECON,ioos:station:SCCF:51:1,2009-01-09T06:00:00Z,26.5545,-82.1715,1.8,34.86,1111122 
SCCF RECON,ioos:station:SCCF:51:1,2009-01-09T07:00:00Z,26.5545,-82.1715,1.65,34.6,1111122 
SCCF RECON,ioos:station:SCCF:51:1,2009-01-09T08:00:00Z,26.5545,-82.1715,1.51,34.31,1111122 
SCCF RECON,ioos:station:SCCF:51:1,2009-01-09T09:00:00Z,26.5545,-82.1715,1.37,33.74,1111122 
SCCF RECON,ioos:station:SCCF:51:1,2009-01-09T10:00:00Z,26.5545,-82.1715,1.25,33.56,1111122 
SCCF RECON,ioos:station:SCCF:51:1,2009-01-09T11:00:00Z,26.5545,-82.1715,1.15,33.33,1111122 
SCCF RECON,ioos:station:SCCF:51:1,2009-01-09T12:00:00Z,26.5545,-82.1715,1.096,33.59,1111122 
SCCF RECON,ioos:station:SCCF:51:1,2009-01-09T13:00:00Z,26.5545,-82.1715,1.17,33.63,1111122 
SCCF RECON,ioos:station:SCCF:51:1,2009-01-09T14:00:00Z,26.5545,-82.1715,1.297,33.8,1111122 
SCCF RECON,ioos:station:SCCF:51:1,2009-01-09T15:00:00Z,26.5545,-82.1715,1.447,34.11,1111122 
SCCF RECON,ioos:station:SCCF:51:1,2009-01-09T16:00:00Z,26.5545,-82.1715,1.561,35.05,1111122 
SCCF RECON,ioos:station:SCCF:51:1,2009-01-09T17:00:00Z,26.5545,-82.1715,1.647,35.2,1111122 
SCCF RECON,ioos:station:SCCF:51:1,2009-01-09T18:00:00Z,26.5545,-82.1715,1.686,35.25,1111122 
SCCF RECON,ioos:station:SCCF:51:1,2009-01-09T19:00:00Z,26.5545,-82.1715,1.67,34.96,1111122 
SCCF RECON,ioos:station:SCCF:51:1,2009-01-09T20:00:00Z,26.5545,-82.1715,1.636,34.26,1111122 
SCCF RECON,ioos:station:SCCF:51:1,2009-01-09T21:00:00Z,26.5545,-82.1715,1.627,34.37,1111122 
SCCF RECON,ioos:station:SCCF:51:1,2009-01-09T22:00:00Z,26.5545,-82.1715,1.671,34.22,1111122 
SCCF RECON,ioos:station:SCCF:51:1,2009-01-09T23:00:00Z,26.5545,-82.1715,1.74,34.5,1111122 
SCCF RECON,ioos:station:SCCF:51:1,2009-01-10T00:00:00Z,26.5545,-82.1715,1.817,34.94,1111122 
SCCF RECON,ioos:station:SCCF:51:1,2009-01-10T01:00:00Z,26.5545,-82.1715,1.91,35.3,1111122 
SCCF RECON,ioos:station:SCCF:51:1,2009-01-10T02:00:00Z,26.5545,-82.1715,2.007,35.4,1111122 
SCCF RECON,ioos:station:SCCF:51:1,2009-01-10T03:00:00Z,26.5545,-82.1715,2.082,35.47,1111122 
SCCF RECON,ioos:station:SCCF:51:1,2009-01-10T04:00:00Z,26.5545,-82.1715,2.107,35.44,1111122 
SCCF RECON,ioos:station:SCCF:51:1,2009-01-10T05:00:00Z,26.5545,-82.1715,2.064,35.29,1111122 
SCCF RECON,ioos:station:SCCF:51:1,2009-01-10T06:00:00Z,26.5545,-82.1715,1.981,35.15,1111122 
SCCF RECON,ioos:station:SCCF:51:1,2009-01-10T07:00:00Z,26.5545,-82.1715,1.863,34.6,1111122 
SCCF RECON,ioos:station:SCCF:51:1,2009-01-10T08:00:00Z,26.5545,-82.1715,1.711,33.94,1111122 
SCCF RECON,ioos:station:SCCF:51:1,2009-01-10T09:00:00Z,26.5545,-82.1715,1.558,33.49,1111122 
SCCF RECON,ioos:station:SCCF:51:1,2009-01-10T10:00:00Z,26.5545,-82.1715,1.42,33.17,1111122 
SCCF RECON,ioos:station:SCCF:51:1,2009-01-10T11:00:00Z,26.5545,-82.1715,1.292,33.03,1111122 
SCCF RECON,ioos:station:SCCF:51:1,2009-01-10T12:00:00Z,26.5545,-82.1715,1.192,32.95,1111122 
SCCF RECON,ioos:station:SCCF:51:1,2009-01-10T13:00:00Z,26.5545,-82.1715,1.182,32.97,1111122 
SCCF RECON,ioos:station:SCCF:51:1,2009-01-10T14:00:00Z,26.5545,-82.1715,1.28,33.18,1111122 
SCCF RECON,ioos:station:SCCF:51:1,2009-01-10T15:00:00Z,26.5545,-82.1715,1.424,33.33,1111122 
SCCF RECON,ioos:station:SCCF:51:1,2009-01-10T16:00:00Z,26.5545,-82.1715,1.561,34.51,1111122 
SCCF RECON,ioos:station:SCCF:51:1,2009-01-10T17:00:00Z,26.5545,-82.1715,1.66,35.02,1111122 
SCCF RECON,ioos:station:SCCF:51:1,2009-01-10T18:00:00Z,26.5545,-82.1715,1.723,34.95,1111122 
SCCF RECON,ioos:station:SCCF:51:1,2009-01-10T19:00:00Z,26.5545,-82.1715,1.741,34.9,1111122 
SCCF RECON,ioos:station:SCCF:51:1,2009-01-10T20:00:00Z,26.5545,-82.1715,1.718,34.46,1111122 
SCCF RECON,ioos:station:SCCF:51:1,2009-01-10T21:00:00Z,26.5545,-82.1715,1.683,34.43,1111122 
SCCF RECON,ioos:station:SCCF:51:1,2009-01-10T22:00:00Z,26.5545,-82.1715,1.688,34.41,1111122 
SCCF RECON,ioos:station:SCCF:51:1,2009-01-10T23:00:00Z,26.5545,-82.1715,1.733,34.25,1111122 
SCCF RECON,ioos:station:SCCF:51:1,2009-01-11T00:00:00Z,26.5545,-82.1715,1.799,34.35,1111122 
SCCF RECON,ioos:station:SCCF:51:1,2009-01-11T01:00:00Z,26.5545,-82.1715,1.87,35.16,1111122 
SCCF RECON,ioos:station:SCCF:51:1,2009-01-11T02:00:00Z,26.5545,-82.1715,1.97,35.42,1111122 
SCCF RECON,ioos:station:SCCF:51:1,2009-01-11T03:00:00Z,26.5545,-82.1715,2.07,35.44,1111122 
SCCF RECON,ioos:station:SCCF:51:1,2009-01-11T04:00:00Z,26.5545,-82.1715,2.15,35.42,1111122 
SCCF RECON,ioos:station:SCCF:51:1,2009-01-11T05:00:00Z,26.5545,-82.1715,2.186,35.42,1111122 
SCCF RECON,ioos:station:SCCF:51:1,2009-01-11T06:00:00Z,26.5545,-82.1715,2.14,35.42,1111122 
SCCF RECON,ioos:station:SCCF:51:1,2009-01-11T07:00:00Z,26.5545,-82.1715,2.031,35.38,1111122 
SCCF RECON,ioos:station:SCCF:51:1,2009-01-11T08:00:00Z,26.5545,-82.1715,1.88,35.14,1111122 
SCCF RECON,ioos:station:SCCF:51:1,2009-01-11T09:00:00Z,26.5545,-82.1715,1.72,34.7,1111122 
SCCF RECON,ioos:station:SCCF:51:1,2009-01-11T10:00:00Z,26.5545,-82.1715,1.56,33.89,1111122 
SCCF RECON,ioos:station:SCCF:51:1,2009-01-11T11:00:00Z,26.5545,-82.1715,1.418,33.0,1111122 
SCCF RECON,ioos:station:SCCF:51:1,2009-01-11T12:00:00Z,26.5545,-82.1715,1.29,32.99,1111122 
SCCF RECON,ioos:station:SCCF:51:1,2009-01-11T13:00:00Z,26.5545,-82.1715,1.208,33.15,1111122 
SCCF RECON,ioos:station:SCCF:51:1,2009-01-11T14:00:00Z,26.5545,-82.1715,1.217,33.46,1111122 
SCCF RECON,ioos:station:SCCF:51:1,2009-01-11T15:00:00Z,26.5545,-82.1715,1.32,33.18,1111122 
SCCF RECON,ioos:station:SCCF:51:1,2009-01-11T16:00:00Z,26.5545,-82.1715,1.483,33.66,1111122 
SCCF RECON,ioos:station:SCCF:51:1,2009-01-11T17:00:00Z,26.5545,-82.1715,1.608,34.76,1111122 